Previsão horária em Jurkowo

Hoje, 22 Junho, Terça-feira

Tempo Temperatura Precipitação Vento Pressão Humidade
00:00 +19°C° 0 mm 2 m/s 749 mmHg 88%
01:00 +19°C° 0 mm 2 m/s 749 mmHg 87%
02:00 +19°C° 0 mm 2 m/s 749 mmHg 88%
03:00 +19°C° 0 mm 2 m/s 750 mmHg 89%
04:00 +19°C° 0 mm 2 m/s 750 mmHg 89%
05:00 +20°C° 0.2 mm 3 m/s 750 mmHg 88%
06:00 +21°C° 0.2 mm 4 m/s 751 mmHg 86%
07:00 +22°C° 0.2 mm 5 m/s 751 mmHg 84%
08:00 +23°C° 0 mm 5 m/s 751 mmHg 80%
09:00 +25°C° 0 mm 5 m/s 752 mmHg 76%
10:00 +26°C° 0 mm 5 m/s 752 mmHg 72%
11:00 +25°C° 0 mm 5 m/s 752 mmHg 73%
12:00 +25°C° 0 mm 5 m/s 752 mmHg 74%
13:00 +25°C° 0 mm 4 m/s 753 mmHg 75%
14:00 +23°C° 0 mm 5 m/s 753 mmHg 75%
15:00 +23°C° 0 mm 5 m/s 753 mmHg 76%
16:00 +22°C° 0 mm 5 m/s 753 mmHg 76%
17:00 +22°C° 0.3 mm 5 m/s 754 mmHg 78%
18:00 +21°C° 0.3 mm 5 m/s 754 mmHg 80%
19:00 +21°C° 0.3 mm 4 m/s 754 mmHg 81%
20:00 +20°C° 0.1 mm 4 m/s 754 mmHg 84%
21:00 +19°C° 0.1 mm 4 m/s 755 mmHg 87%
22:00 +18°C° 0.1 mm 3 m/s 755 mmHg 90%
23:00 +17°C° 0 mm 3 m/s 755 mmHg 90%

Amanhã, 23 Junho, Quarta-feira

Tempo Temperatura Precipitação Vento Pressão Humidade
00:00 +16°C° 0 mm 3 m/s 755 mmHg 90%
01:00 +16°C° 0 mm 3 m/s 756 mmHg 89%
02:00 +16°C° 0 mm 3 m/s 756 mmHg 86%
03:00 +16°C° 0 mm 3 m/s 756 mmHg 83%
04:00 +16°C° 0 mm 3 m/s 756 mmHg 79%
05:00 +16°C° 0.1 mm 3 m/s 756 mmHg 76%
06:00 +17°C° 0.1 mm 3 m/s 757 mmHg 73%
07:00 +17°C° 0.1 mm 3 m/s 757 mmHg 69%
08:00 +18°C° 0 mm 3 m/s 757 mmHg 67%
09:00 +18°C° 0 mm 3 m/s 757 mmHg 64%
10:00 +19°C° 0 mm 3 m/s 758 mmHg 61%
11:00 +20°C° 0.1 mm 3 m/s 757 mmHg 59%
12:00 +23°C° 0.1 mm 2 m/s 757 mmHg 56%
13:00 +24°C° 0.1 mm 2 m/s 757 mmHg 54%
14:00 +24°C° 0.1 mm 2 m/s 757 mmHg 54%
15:00 +24°C° 0.1 mm 2 m/s 757 mmHg 54%
16:00 +25°C° 0.1 mm 1 m/s 757 mmHg 54%
17:00 +24°C° 0.1 mm 1 m/s 757 mmHg 60%
18:00 +23°C° 0.1 mm 1 m/s 757 mmHg 66%
19:00 +21°C° 0.1 mm 2 m/s 757 mmHg 72%
20:00 +22°C° 0 mm 1 m/s 757 mmHg 73%
21:00 +21°C° 0 mm 1 m/s 757 mmHg 73%
22:00 +18°C° 0 mm 0 m/s 757 mmHg 74%
23:00 +20°C° 0 mm 1 m/s 757 mmHg 75%

Depois de amanhã, 24 Junho, Quinta-feira

Tempo Temperatura Precipitação Vento Pressão Humidade
00:00 +20°C° 0 mm 1 m/s 757 mmHg 77%
01:00 +19°C° 0 mm 1 m/s 757 mmHg 78%
02:00 +18°C° 0 mm 2 m/s 757 mmHg 81%
03:00 +17°C° 0 mm 2 m/s 757 mmHg 83%
04:00 +17°C° 0 mm 2 m/s 757 mmHg 85%
05:00 +18°C° 0 mm 2 m/s 757 mmHg 81%
06:00 +19°C° 0 mm 2 m/s 757 mmHg 78%
07:00 +20°C° 0 mm 2 m/s 757 mmHg 74%
08:00 +23°C° 0 mm 2 m/s 757 mmHg 70%
09:00 +24°C° 0 mm 2 m/s 757 mmHg 66%
10:00 +25°C° 0 mm 2 m/s 757 mmHg 62%
11:00 +26°C° 0 mm 2 m/s 757 mmHg 60%
12:00 +27°C° 0 mm 2 m/s 756 mmHg 59%
13:00 +28°C° 0 mm 2 m/s 756 mmHg 57%
14:00 +27°C° 0.1 mm 2 m/s 756 mmHg 59%
15:00 +27°C° 0.1 mm 2 m/s 756 mmHg 61%
16:00 +27°C° 0.1 mm 2 m/s 755 mmHg 62%
17:00 +26°C° 0.1 mm 2 m/s 755 mmHg 67%
18:00 +25°C° 0.1 mm 2 m/s 755 mmHg 72%
19:00 +25°C° 0.1 mm 3 m/s 754 mmHg 77%
20:00 +24°C° 0 mm 3 m/s 754 mmHg 80%
21:00 +21°C° 0 mm 3 m/s 754 mmHg 83%
22:00 +20°C° 0 mm 3 m/s 754 mmHg 86%
23:00 +20°C° 2.4 mm 3 m/s 754 mmHg 89%

25 Junho, Sexta-feira

Tempo Temperatura Precipitação Vento Pressão Humidade
00:00 +19°C° 2.4 mm 3 m/s 753 mmHg 92%
01:00 +19°C° 2.4 mm 3 m/s 753 mmHg 95%
02:00 +18°C° 1.4 mm 3 m/s 753 mmHg 96%
03:00 +18°C° 1.4 mm 3 m/s 753 mmHg 96%
04:00 +18°C° 1.4 mm 3 m/s 753 mmHg 96%
05:00 +18°C° 0.2 mm 3 m/s 753 mmHg 95%
06:00 +17°C° 0.2 mm 3 m/s 753 mmHg 95%
07:00 +17°C° 0.2 mm 4 m/s 754 mmHg 95%
08:00 +17°C° 0.1 mm 4 m/s 754 mmHg 93%
09:00 +18°C° 0.1 mm 4 m/s 754 mmHg 91%
10:00 +18°C° 0.1 mm 4 m/s 754 mmHg 89%
11:00 +18°C° 0 mm 4 m/s 755 mmHg 88%
12:00 +19°C° 0 mm 4 m/s 755 mmHg 86%
13:00 +19°C° 0 mm 4 m/s 755 mmHg 84%
14:00 +19°C° 0 mm 4 m/s 756 mmHg 84%
15:00 +18°C° 0 mm 4 m/s 756 mmHg 84%
16:00 +17°C° 0 mm 5 m/s 756 mmHg 84%
17:00 +18°C° 0 mm 4 m/s 756 mmHg 86%
18:00 +17°C° 0 mm 4 m/s 756 mmHg 87%
19:00 +17°C° 0 mm 4 m/s 756 mmHg 89%
20:00 +15°C° 0 mm 4 m/s 756 mmHg 91%
21:00 +15°C° 0 mm 4 m/s 756 mmHg 93%
22:00 +15°C° 0 mm 4 m/s 757 mmHg 96%
23:00 +16°C° 0 mm 3 m/s 757 mmHg 95%

26 Junho, Sábado

Tempo Temperatura Precipitação Vento Pressão Humidade
00:00 +16°C° 0 mm 3 m/s 757 mmHg 94%
01:00 +16°C° 0 mm 3 m/s 757 mmHg 94%
02:00 +14°C° 0 mm 3 m/s 757 mmHg 95%
03:00 +14°C° 0 mm 3 m/s 757 mmHg 95%
04:00 +13°C° 0 mm 3 m/s 757 mmHg 96%
05:00 +14°C° 0 mm 3 m/s 757 mmHg 92%
06:00 +17°C° 0 mm 4 m/s 757 mmHg 87%
07:00 +18°C° 0 mm 4 m/s 757 mmHg 83%
08:00 +19°C° 0 mm 4 m/s 757 mmHg 76%
09:00 +21°C° 0 mm 4 m/s 757 mmHg 69%
10:00 +22°C° 0 mm 4 m/s 757 mmHg 61%
11:00 +23°C° 0.1 mm 4 m/s 757 mmHg 59%
12:00 +23°C° 0.1 mm 4 m/s 757 mmHg 57%
13:00 +25°C° 0.1 mm 4 m/s 756 mmHg 54%
14:00 +25°C° 0 mm 4 m/s 756 mmHg 58%
15:00 +23°C° 0 mm 4 m/s 756 mmHg 61%
16:00 +23°C° 0 mm 4 m/s 756 mmHg 64%
17:00 +22°C° 0.2 mm 4 m/s 756 mmHg 69%
18:00 +21°C° 0.2 mm 3 m/s 756 mmHg 75%
19:00 +20°C° 0.2 mm 3 m/s 756 mmHg 80%
20:00 +19°C° 0 mm 2 m/s 756 mmHg 83%
21:00 +18°C° 0 mm 2 m/s 756 mmHg 87%
22:00 +17°C° 0 mm 2 m/s 757 mmHg 90%
23:00 +17°C° 0 mm 2 m/s 757 mmHg 91%

27 Junho, Domingo

Tempo Temperatura Precipitação Vento Pressão Humidade
00:00 +16°C° 0 mm 2 m/s 756 mmHg 92%
01:00 +16°C° 0 mm 3 m/s 756 mmHg 93%
02:00 +15°C° 0 mm 2 m/s 756 mmHg 94%
03:00 +15°C° 0 mm 2 m/s 756 mmHg 94%
04:00 +15°C° 0 mm 2 m/s 757 mmHg 95%
05:00 +16°C° 0 mm 2 m/s 757 mmHg 90%
06:00 +17°C° 0 mm 2 m/s 757 mmHg 85%
07:00 +19°C° 0 mm 2 m/s 757 mmHg 80%
08:00 +20°C° 0.2 mm 2 m/s 757 mmHg 75%
09:00 +21°C° 0.2 mm 3 m/s 757 mmHg 70%
10:00 +24°C° 0.2 mm 3 m/s 757 mmHg 65%
11:00 +24°C° 0.3 mm 3 m/s 757 mmHg 62%
12:00 +25°C° 0.3 mm 2 m/s 756 mmHg 59%
13:00 +25°C° 0.3 mm 2 m/s 756 mmHg 56%
14:00 +25°C° 0.5 mm 2 m/s 756 mmHg 58%
15:00 +25°C° 0.5 mm 2 m/s 756 mmHg 60%
16:00 +25°C° 0.5 mm 2 m/s 756 mmHg 62%
17:00 +24°C° 0.3 mm 2 m/s 756 mmHg 68%
18:00 +23°C° 0.3 mm 2 m/s 756 mmHg 73%
19:00 +21°C° 0.3 mm 2 m/s 757 mmHg 78%
20:00 +20°C° 0 mm 2 m/s 757 mmHg 82%
21:00 +18°C° 0 mm 2 m/s 757 mmHg 86%
22:00 +17°C° 0 mm 2 m/s 757 mmHg 89%
23:00 +17°C° 0 mm 2 m/s 757 mmHg 90%
Mostrar mais

Necessitamos do seu Consentimento

A Meteoprog e os seus Fornecedores de Serviços podem armazenar e aceder a dados pessoais como cookies, identificadores do dispositivo ou outras tecnologias semelhantes existentes no seu dispositivo e processar estes dados para personalizar conteúdos e anúncios, assim como funcionalidades nas redes sociais e análise de tráfego.

  • Armazenar e/ou aceder a informações no seu dispositivo

    Os cookies, identificadores do dispositivo ou outras informações podem ser armazenados ou acedidos no seu dispositivo, para os fins acima indicados.

  • Anúncios e conteúdos personalizados, medição de anúncios e conteúdos, dados sobre o público-alvo e desenvolvimento de produtos

    Os anúncios e os conteúdos podem ser personalizados com base num perfil. Podem ser adicionados dados adicionais para uma maior personalização dos anúncios e dos conteúdos. A eficácia dos anúncios e dos conteúdos pode ser medida. Podem ser obtidas informações sobre o público que visualizou os anúncios e os conteúdos. Estes dados podem ser usados para desenvolver ou melhorar sistemas, softwares ou a experiência do utilizador.

Ao clicar em "Eu concordo”, permitirá o uso de cookies, identificadores do dispositivo e web beacons mencionados ou outras tecnologias semelhantes. As configurações do navegador do seu dispositivo podem ser alteradas.

Para certos fins, podem ser invocados interesses legítimos ao invés de consentimento. Pode ler mais informação sobre este assunto na nossa Política de Privacidade e Cookies.